Location: Baia Mare
(47.6567°N, 23.5850°E)
Time: 12:55:32
(UTC+02:00)

ISS - Pass Details

Date: 08 December 2018
Orbit: 401 x 408 km, 51.6° (Epoch: 16 December)

Event Time Altitude Azimuth Distance (km) Brightness Sun altitude
Rises 18:37:24 0° 293° (WNW) 2,319 0.9 -19.8°
Reaches altitude 10° 18:39:29 10° 293° (WNW) 1,457 -0.2 -20.2°
Enters shadow 18:42:33 74° 256° (WSW) 422 -3.7 -20.7°
